FW2976 Weather Reports


Display with metric or nautical units.
time (UTC)temp
F
wind
direction
speed
MPH
gust
MPH
rain 1hr
in
rain 24hr
in
rain mn
in
humidity
%
barometer
mb
20260507165519 55 95 3.0 6.0 0.00 0.00 0.00 25 1012.1
20260507165018 54 101 2.0 6.0 0.00 0.00 0.00 24 1012.1
20260507164539 54 90 2.0 6.0 0.00 0.00 0.00 21 1012.1
20260507164019 54 100 1.0 4.0 0.00 0.00 0.00 23 1012.2
20260507163519 54 0 0.0 4.0 0.00 0.00 0.00 24 1012.2
20260507163039 53 104 2.0 4.0 0.00 0.00 0.00 29 1012.2
20260507162518 52 109 1.0 4.0 0.00 0.00 0.00 25 1012.2
20260507162021 51 78 0.0 4.0 0.00 0.00 0.00 26 1012.3
20260507161539 51 73 1.0 4.0 0.00 0.00 0.00 22 1012.3
20260507161019 51 87 1.0 4.0 0.00 0.00 0.00 22 1012.4
20260507160518 51 90 1.0 4.0 0.00 0.00 0.00 21 1012.3
20260507160057 51 65 1.0 4.0 0.00 0.00 0.00 23 1012.4
20260507155521 51 57 1.0 4.0 0.00 0.00 0.00 26 1012.5
20260507155016 51 140 1.0 3.0 0.00 0.00 0.00 26 1012.4
20260507154532 50 0 0.0 3.0 0.00 0.00 0.00 26 1012.4
20260507154020 50 0 1.0 4.0 0.00 0.00 0.00 25 1012.4
20260507153519 51 60 1.0 4.0 0.00 0.00 0.00 24 1012.4
20260507153037 51 61 2.0 4.0 0.00 0.00 0.00 24 1012.4
20260507152515 52 63 1.0 3.0 0.00 0.00 0.00 24 1012.3
20260507152016 52 0 0.0 3.0 0.00 0.00 0.00 23 1012.2
20260507151537 52 58 1.0 6.0 0.00 0.00 0.00 23 1012.2
20260507151015 52 59 1.0 6.0 0.00 0.00 0.00 22 1012.2
20260507150515 53 61 2.0 7.0 0.00 0.00 0.00 21 1012.2
20260507150037 53 360 3.0 9.0 0.00 0.00 0.00 21 1012.1
20260507145517 54 71 3.0 9.0 0.00 0.00 0.00 21 1011.9
20260507145019 54 65 4.0 8.0 0.00 0.00 0.00 22 1011.9
20260507144544 54 69 2.0 6.0 0.00 0.00 0.00 24 1011.9
20260507144018 53 355 1.0 3.0 0.00 0.00 0.00 23 1011.9
20260507143516 52 325 0.0 5.0 0.00 0.00 0.00 22 1011.9
20260507143038 52 0 1.0 5.0 0.00 0.00 0.00 23 1012.0
20260507142516 53 76 2.0 6.0 0.00 0.00 0.00 22 1012.0
20260507142015 53 247 2.0 9.0 0.00 0.00 0.00 21 1012.1
20260507141537 53 216 3.0 9.0 0.00 0.00 0.00 22 1012.2
20260507141021 52 234 0.0 2.0 0.00 0.00 0.00 26 1012.1
20260507140516 51 234 0.0 3.0 0.00 0.00 0.00 25 1012.1
20260507140040 50 0 0.0 3.0 0.00 0.00 0.00 25 1012.1
20260507135518 50 234 1.0 3.0 0.00 0.00 0.00 26 1012.0
20260507135018 49 235 1.0 2.0 0.00 0.00 0.00 26 1012.1
20260507134536 48 235 0.0 7.0 0.00 0.00 0.00 27 1011.9
20260507134019 47 237 1.0 7.0 0.00 0.00 0.00 27 1011.9
20260507133516 47 234 4.0 7.0 0.00 0.00 0.00 26 1011.9
20260507133034 47 237 4.0 7.0 0.00 0.00 0.00 27 1011.9
20260507132516 46 231 4.0 7.0 0.00 0.00 0.00 27 1011.9
20260507132015 46 242 3.0 5.0 0.00 0.00 0.00 28 1011.9
20260507131533 46 237 2.0 4.0 0.00 0.00 0.00 28 1011.7
20260507131019 45 244 1.0 4.0 0.00 0.00 0.00 28 1011.7
20260507130520 45 0 0.0 2.0 0.00 0.00 0.00 29 1011.6
20260507130041 45 0 0.0 1.0 0.00 0.00 0.00 28 1011.5
20260507125521 45 0 0.0 2.0 0.00 0.00 0.00 28 1011.5
20260507125019 45 0 0.0 2.0 0.00 0.00 0.00 28 1011.4
20260507124537 44 276 1.0 4.0 0.00 0.00 0.00 29 1011.3
20260507124019 44 276 2.0 4.0 0.00 0.00 0.00 29 1011.3
20260507123518 43 281 0.0 3.0 0.00 0.00 0.00 31 1011.2
20260507123043 43 282 1.0 4.0 0.00 0.00 0.00 30 1011.1
20260507122518 43 282 1.0 6.0 0.00 0.00 0.00 28 1011.0
20260507122022 43 284 2.0 6.0 0.00 0.00 0.00 27 1011.0
20260507121537 43 279 2.0 6.0 0.00 0.00 0.00 27 1011.0
20260507121016 42 290 4.0 8.0 0.00 0.00 0.00 27 1011.1
20260507120515 41 291 4.0 8.0 0.00 0.00 0.00 28 1011.1
20260507120034 41 282 2.0 4.0 0.00 0.00 0.00 29 1011.0
20260507115516 41 280 2.0 4.0 0.00 0.00 0.00 28 1011.0
20260507115018 40 284 2.0 4.0 0.00 0.00 0.00 29 1011.0
20260507114534 40 281 1.0 3.0 0.00 0.00 0.00 29 1011.0
20260507114019 41 282 0.0 4.0 0.00 0.00 0.00 27 1011.0
20260507113519 42 283 2.0 4.0 0.00 0.00 0.00 26 1010.9
20260507113039 41 283 3.0 4.0 0.00 0.00 0.00 26 1010.8
20260507112518 41 281 3.0 4.0 0.00 0.00 0.00 27 1010.9
20260507112018 41 286 2.0 3.0 0.00 0.00 0.00 26 1010.8
20260507111543 41 287 2.0 4.0 0.00 0.00 0.00 26 1010.8
20260507111016 41 288 2.0 4.0 0.00 0.00 0.00 26 1010.7
20260507110518 41 288 3.0 4.0 0.00 0.00 0.00 27 1010.7
20260507110038 41 285 2.0 4.0 0.00 0.00 0.00 27 1010.6
20260507105515 41 286 2.0 4.0 0.00 0.00 0.00 27 1010.6
20260507105016 41 284 2.0 4.0 0.00 0.00 0.00 27 1010.7
20260507104535 41 277 3.0 4.0 0.00 0.00 0.00 27 1010.6
20260507104020 41 276 2.0 6.0 0.00 0.00 0.00 27 1010.7
20260507103518 41 275 3.0 6.0 0.00 0.00 0.00 27 1010.6
20260507103034 41 288 3.0 7.0 0.00 0.00 0.00 27 1010.6
20260507102518 40 285 4.0 7.0 0.00 0.00 0.00 27 1010.5
20260507102019 40 279 3.0 7.0 0.00 0.00 0.00 28 1010.6
20260507101538 40 281 4.0 6.0 0.00 0.00 0.00 27 1010.5
20260507101023 40 284 3.0 6.0 0.00 0.00 0.00 27 1010.6
20260507100521 40 275 3.0 6.0 0.00 0.00 0.00 27 1010.5
20260507100036 41 284 2.0 4.0 0.00 0.00 0.00 27 1010.6
20260507095516 41 286 2.0 4.0 0.00 0.00 0.00 26 1010.6
20260507095015 41 287 2.0 4.0 0.00 0.00 0.00 26 1010.6
20260507094534 41 288 2.0 5.0 0.00 0.00 0.00 26 1010.6
20260507094015 41 289 3.0 5.0 0.00 0.00 0.00 26 1010.6
20260507093516 41 292 3.0 5.0 0.00 0.00 0.00 27 1010.7
20260507093042 41 288 3.0 5.0 0.00 0.00 0.00 27 1010.6
20260507092517 40 290 3.0 4.0 0.00 0.00 0.00 27 1010.7
20260507092017 40 277 2.0 5.0 0.00 0.00 0.00 27 1010.6
20260507091539 40 290 3.0 5.0 0.00 0.00 0.00 28 1010.8
20260507091019 39 283 2.0 6.0 0.00 0.00 0.00 28 1010.7
20260507090522 38 280 2.0 6.0 0.00 0.00 0.00 29 1010.7
20260507090038 39 0 0.0 3.0 0.00 0.00 0.00 31 1010.6
20260507085519 40 290 1.0 4.0 0.00 0.00 0.00 30 1010.6
20260507085018 40 290 1.0 4.0 0.00 0.00 0.00 28 1010.6
20260507084540 40 286 3.0 4.0 0.00 0.00 0.00 27 1010.6
20260507084019 40 288 1.0 4.0 0.00 0.00 0.00 28 1010.6
20260507083516 40 288 3.0 6.0 0.00 0.00 0.00 27 1010.5
20260507083039 41 283 3.0 6.0 0.00 0.00 0.00 26 1010.5
20260507082516 41 288 2.0 6.0 0.00 0.00 0.00 26 1010.6
20260507082015 41 286 2.0 6.0 0.00 0.00 0.00 26 1010.6
20260507081537 41 286 3.0 6.0 0.00 0.00 0.00 26 1010.6
20260507081016 41 279 3.0 6.0 0.00 0.00 0.00 26 1010.5
20260507080522 41 296 3.0 7.0 0.00 0.00 0.00 26 1010.6
20260507080035 41 284 4.0 7.0 0.00 0.00 0.00 26 1010.5
20260507075515 41 281 2.0 5.0 0.00 0.00 0.00 26 1010.6
20260507075015 41 285 2.0 6.0 0.00 0.00 0.00 26 1010.7
20260507074534 41 284 3.0 6.0 0.00 0.00 0.00 26 1010.7
20260507074016 41 286 4.0 6.0 0.00 0.00 0.00 27 1010.7
20260507073521 40 292 3.0 5.0 0.00 0.00 0.00 27 1010.7
20260507073035 40 278 2.0 4.0 0.00 0.00 0.00 28 1010.8
20260507072518 40 258 2.0 4.0 0.00 0.00 0.00 28 1010.8
20260507072015 40 258 2.0 4.0 0.00 0.00 0.00 28 1010.9
20260507071535 40 259 1.0 4.0 0.00 0.00 0.00 28 1010.9
20260507071016 39 259 2.0 4.0 0.00 0.00 0.00 28 1011.0
20260507070516 40 259 3.0 4.0 0.00 0.00 0.00 28 1011.0
20260507070036 39 265 2.0 4.0 0.00 0.00 0.00 29 1011.0
20260507065515 40 265 3.0 4.0 0.00 0.00 0.00 28 1011.0
20260507065015 40 270 2.0 3.0 0.00 0.00 0.00 28 1010.9
20260507064534 40 271 1.0 4.0 0.00 0.00 0.00 28 1011.0
20260507064016 39 270 2.0 4.0 0.00 0.00 0.00 28 1010.9
20260507063520 40 261 3.0 4.0 0.00 0.00 0.00 29 1010.9
20260507063033 40 276 1.0 3.0 0.00 0.00 0.00 27 1010.9
20260507062519 41 276 1.0 5.0 0.00 0.00 0.00 27 1011.0
20260507062018 42 282 2.0 6.0 0.00 0.00 0.00 26 1011.2
20260507061537 41 287 3.0 8.0 0.00 0.00 0.00 26 1011.2
20260507061018 42 262 4.0 8.0 0.00 0.00 0.00 26 1011.2
20260507060516 41 292 4.0 8.0 0.00 0.00 0.00 27 1011.2
20260507060036 41 281 3.0 6.0 0.00 0.00 0.00 27 1011.3
20260507055517 41 269 3.0 6.0 0.00 0.00 0.00 28 1011.3
20260507055017 41 275 2.0 7.0 0.00 0.00 0.00 28 1011.3
20260507054541 41 281 4.0 7.0 0.00 0.00 0.00 26 1011.4
20260507054020 42 273 3.0 6.0 0.00 0.00 0.00 26 1011.4
20260507053516 42 273 3.0 7.0 0.00 0.00 0.00 26 1011.4
20260507053038 42 281 3.0 7.0 0.00 0.00 0.00 26 1011.3
20260507052519 41 287 3.0 7.0 0.00 0.00 0.00 26 1011.4
20260507052018 41 270 3.0 4.0 0.00 0.00 0.00 27 1011.3
20260507051538 42 277 2.0 4.0 0.00 0.00 0.00 26 1011.4
20260507051016 41 281 2.0 4.0 0.00 0.00 0.00 26 1011.4
20260507050516 42 263 2.0 4.0 0.00 0.00 0.00 27 1011.5
20260507050040 41 261 2.0 4.0 0.00 0.00 0.00 27 1011.5
20260507045519 41 263 3.0 4.0 0.00 0.00 0.00 27 1011.5
20260507045016 42 263 2.0 4.0 0.00 0.00 0.00 26 1011.5
20260507044534 41 263 1.0 4.0 0.00 0.00 0.00 27 1011.5
20260507044015 41 263 1.0 4.0 0.00 0.00 0.00 28 1011.6
20260507043524 41 264 2.0 4.0 0.00 0.00 0.00 27 1011.5
20260507043032 41 263 2.0 4.0 0.00 0.00 0.00 28 1011.6
20260507042520 42 266 2.0 6.0 0.00 0.00 0.00 27 1011.6
20260507042019 42 271 3.0 6.0 0.00 0.00 0.00 27 1011.6
20260507041550 43 306 1.0 3.0 0.00 0.00 0.00 26 1011.6
20260507041018 43 309 0.0 3.0 0.00 0.00 0.00 25 1011.8
20260507040522 44 313 1.0 4.0 0.00 0.00 0.00 24 1011.8
20260507040038 45 333 2.0 4.0 0.00 0.00 0.00 23 1011.8
20260507035519 46 348 2.0 3.0 0.00 0.00 0.00 22 1011.8
20260507035019 46 351 1.0 3.0 0.00 0.00 0.00 21 1011.8
20260507034537 47 355 0.0 4.0 0.00 0.00 0.00 20 1011.9
20260507034017 47 355 1.0 4.0 0.00 0.00 0.00 20 1011.9
20260507033516 47 283 2.0 4.0 0.00 0.00 0.00 20 1011.9
20260507033037 47 265 3.0 4.0 0.00 0.00 0.00 20 1011.8
20260507032519 47 265 0.0 3.0 0.00 0.00 0.00 20 1011.9
20260507032015 47 265 1.0 3.0 0.00 0.00 0.00 19 1011.8
20260507031534 47 265 0.0 1.0 0.00 0.00 0.00 20 1012.1
20260507031016 47 265 0.0 1.0 0.00 0.00 0.00 20 1012.2
20260507030516 47 0 0.0 1.0 0.00 0.00 0.00 21 1012.2
20260507030038 48 0 0.0 1.0 0.00 0.00 0.00 19 1012.3
20260507025520 47 0 0.0 1.0 0.00 0.00 0.00 20 1012.3
20260507025015 48 0 0.0 1.0 0.00 0.00 0.00 20 1012.2
20260507024532 48 0 0.0 1.0 0.00 0.00 0.00 21 1012.3
20260507024021 48 0 0.0 0.0 0.00 0.00 0.00 20 1012.2
20260507023516 48 0 0.0 0.0 0.00 0.00 0.00 19 1012.3
20260507023037 48 0 0.0 0.0 0.00 0.00 0.00 18 1012.4
20260507022519 49 0 0.0 1.0 0.00 0.00 0.00 18 1012.4
20260507022016 49 0 0.0 1.0 0.00 0.00 0.00 18 1012.4
20260507021535 49 0 0.0 1.0 0.00 0.00 0.00 18 1012.4
20260507021016 49 0 0.0 1.0 0.00 0.00 0.00 17 1012.5
20260507020516 49 0 0.0 1.0 0.00 0.00 0.00 17 1012.5
20260507020035 49 0 0.0 0.0 0.00 0.00 0.00 16 1012.4
20260507015515 50 0 0.0 1.0 0.00 0.00 0.00 16 1012.5
20260507015019 50 0 0.0 1.0 0.00 0.00 0.00 16 1012.5
20260507014548 50 0 0.0 3.0 0.00 0.00 0.00 15 1012.5
20260507014016 50 0 0.0 3.0 0.00 0.00 0.00 15 1012.5
20260507013515 50 264 1.0 6.0 0.00 0.00 0.00 15 1012.5
20260507013043 50 0 1.0 6.0 0.00 0.00 0.00 15 1012.5
20260507012520 51 246 1.0 8.0 0.00 0.00 0.00 15 1012.4
20260507012018 51 246 2.0 8.0 0.00 0.00 0.00 14 1012.4
20260507011540 51 234 2.0 8.0 0.00 0.00 0.00 14 1012.5
20260507011016 51 270 2.0 8.0 0.00 0.00 0.00 14 1012.5
20260507010519 51 267 2.0 7.0 0.00 0.00 0.00 14 1012.5
20260507010035 51 238 3.0 9.0 0.00 0.00 0.00 14 1012.4
20260507005518 52 262 2.0 9.0 0.00 0.00 0.00 14 1012.5
20260507005018 52 277 4.0 9.0 0.00 0.00 0.00 12 1012.5
20260507004536 52 225 2.0 8.0 0.00 0.00 0.00 13 1012.5
20260507004016 52 271 2.0 9.0 0.00 0.00 0.00 13 1012.7
20260507003516 52 270 4.0 11.0 0.00 0.00 0.00 13 1012.7
20260507003034 52 214 6.0 11.0 0.00 0.00 0.00 13 1012.7
20260507002516 52 267 6.0 10.0 0.00 0.00 0.00 13 1012.7
20260507002019 52 266 4.0 12.0 0.00 0.00 0.00 12 1012.7
20260507001549 53 229 6.0 12.0 0.00 0.00 0.00 12 1012.7
20260507001018 53 270 5.0 11.0 0.00 0.00 0.00 12 1012.8
20260507000523 53 284 5.0 11.0 0.00 0.00 0.00 13 1012.9
20260507000037 52 261 5.0 11.0 0.00 0.00 0.00 12 1012.8
20260506235515 52 223 5.0 13.0 0.00 0.00 0.00 13 1013.0
20260506235016 52 262 6.0 13.0 0.00 0.00 0.00 12 1013.0
20260506234536 52 252 4.0 11.0 0.00 0.00 0.00 12 1013.0
20260506234019 52 260 4.0 11.0 0.00 0.00 0.00 12 1013.0
20260506233516 52 238 3.0 8.0 0.00 0.00 0.00 12 1013.0
20260506233043 52 0 3.0 14.0 0.00 0.00 0.00 13 1013.1
20260506232522 52 340 3.0 14.0 0.00 0.00 0.00 12 1013.3
20260506232015 52 244 5.0 14.0 0.00 0.00 0.00 12 1013.2
20260506231541 52 284 6.0 14.0 0.00 0.00 0.00 12 1013.4
20260506231019 52 282 4.0 13.0 0.00 0.00 0.00 14 1013.5
20260506230515 52 277 7.0 16.0 0.00 0.00 0.00 12 1013.6
20260506230034 53 261 6.0 16.0 0.00 0.00 0.00 11 1013.6
20260506225521 53 247 3.0 13.0 0.00 0.00 0.00 13 1013.7
20260506225020 53 237 6.0 17.0 0.00 0.00 0.00 13 1013.8
20260506224537 53 272 4.0 17.0 0.00 0.00 0.00 12 1013.9
20260506224016 53 298 4.0 13.0 0.00 0.00 0.00 12 1013.8
20260506223518 53 267 7.0 15.0 0.00 0.00 0.00 12 1013.9
20260506223038 53 250 6.0 16.0 0.00 0.00 0.00 13 1014.0
20260506222517 54 232 7.0 16.0 0.00 0.00 0.00 13 1014.0
20260506222016 53 273 3.0 14.0 0.00 0.00 0.00 15 1014.0
20260506221537 53 268 8.0 14.0 0.00 0.00 0.00 14 1014.1
20260506221019 53 230 7.0 12.0 0.00 0.00 0.00 13 1014.0
20260506220519 53 268 4.0 12.0 0.00 0.00 0.00 16 1014.0
20260506220036 53 213 6.0 12.0 0.00 0.00 0.00 16 1014.2
20260506215517 53 242 6.0 18.0 0.00 0.00 0.00 16 1014.3
20260506215015 52 275 6.0 18.0 0.00 0.00 0.00 15 1014.4
20260506214532 52 305 7.0 18.0 0.00 0.00 0.00 15 1014.6
20260506214016 52 269 9.0 16.0 0.00 0.00 0.00 14 1014.6
20260506213518 52 273 10.0 15.0 0.00 0.00 0.00 15 1014.7
20260506213036 52 263 7.0 17.0 0.00 0.00 0.00 15 1014.8
20260506212518 53 282 9.0 21.0 0.00 0.00 0.00 13 1014.9
20260506212018 52 241 10.0 21.0 0.00 0.00 0.00 15 1015.0
20260506211531 52 304 4.0 14.0 0.00 0.00 0.00 14 1015.1
20260506211018 52 304 4.0 14.0 0.00 0.00 0.00 15 1015.1
20260506210517 51 328 6.0 16.0 0.00 0.00 0.00 14 1015.1
20260506210040 51 286 5.0 16.0 0.00 0.00 0.00 15 1015.3
20260506205519 51 310 5.0 17.0 0.00 0.00 0.00 15 1015.2
20260506205018 51 253 9.0 17.0 0.00 0.00 0.00 15 1015.5
20260506204536 52 281 5.0 14.0 0.00 0.00 0.00 15 1015.5
20260506204018 51 250 4.0 17.0 0.00 0.00 0.00 14 1015.5
20260506203518 51 299 4.0 17.0 0.00 0.00 0.00 17 1015.6
20260506203042 51 286 7.0 15.0 0.00 0.00 0.00 15 1015.7
20260506202520 51 51 3.0 15.0 0.00 0.00 0.00 19 1015.6
20260506202020 51 292 6.0 13.0 0.00 0.00 0.00 16 1015.8
20260506201534 51 271 5.0 20.0 0.00 0.00 0.00 16 1015.7
20260506201018 51 303 5.0 20.0 0.00 0.00 0.00 15 1015.9
20260506200518 52 318 7.0 15.0 0.00 0.00 0.00 14 1016.0
20260506200042 52 262 3.0 11.0 0.00 0.00 0.00 15 1016.0
20260506195518 51 254 2.0 14.0 0.00 0.00 0.00 19 1016.1
20260506195018 51 252 7.0 16.0 0.00 0.00 0.00 17 1016.1
20260506194539 50 288 4.0 16.0 0.00 0.00 0.00 20 1016.1
20260506194018 50 277 7.0 16.0 0.00 0.00 0.00 18 1016.2
20260506193520 50 271 5.0 15.0 0.00 0.00 0.00 18 1016.2
20260506193036 50 301 7.0 15.0 0.00 0.00 0.00 19 1016.3
20260506192519 49 277 5.0 14.0 0.00 0.00 0.00 18 1016.4
20260506192019 49 212 3.0 13.0 0.00 0.00 0.00 19 1016.4
20260506191535 49 338 7.0 13.0 0.00 0.00 0.00 17 1016.7
20260506191019 49 105 2.0 12.0 0.00 0.00 0.00 22 1016.7
20260506190519 49 244 6.0 13.0 0.00 0.00 0.00 18 1017.0
20260506190038 50 257 4.0 15.0 0.00 0.00 0.00 19 1017.1
20260506185518 49 98 4.0 15.0 0.00 0.00 0.00 17 1017.1
20260506185020 49 306 6.0 14.0 0.00 0.00 0.00 17 1017.3
20260506184536 48 56 4.0 17.0 0.00 0.00 0.00 18 1017.3
20260506184019 48 56 5.0 17.0 0.00 0.00 0.00 18 1017.4
20260506183519 49 247 4.0 11.0 0.00 0.00 0.00 20 1017.4
20260506183037 48 265 3.0 12.0 0.00 0.00 0.00 19 1017.4
20260506182518 48 64 4.0 13.0 0.00 0.00 0.00 18 1017.5
20260506182018 47 79 4.0 13.0 0.00 0.00 0.00 18 1017.6
20260506181537 47 297 6.0 13.0 0.00 0.00 0.00 19 1017.6
20260506181018 47 247 4.0 13.0 0.00 0.00 0.00 19 1017.7
20260506180525 47 360 2.0 11.0 0.00 0.00 0.00 20 1017.9
20260506180045 46 74 4.0 13.0 0.00 0.00 0.00 20 1017.9
20260506175519 46 221 2.0 13.0 0.00 0.00 0.00 23 1018.0
20260506175018 46 227 4.0 16.0 0.00 0.00 0.00 21 1018.0
20260506174537 45 74 3.0 16.0 0.00 0.00 0.00 22 1018.1
20260506174019 45 273 3.0 14.0 0.00 0.00 0.00 22 1018.1
20260506173519 45 306 6.0 14.0 0.00 0.00 0.00 23 1018.2
20260506173037 45 315 3.0 16.0 0.00 0.00 0.00 23 1018.3
20260506172519 44 277 7.0 16.0 0.00 0.00 0.00 23 1018.3
20260506172021 45 275 8.0 15.0 0.00 0.00 0.00 23 1018.3
20260506171548 44 192 4.0 9.0 0.00 0.00 0.00 23 1018.3
20260506171019 44 275 3.0 12.0 0.00 0.00 0.00 22 1018.5
20260506170519 44 269 5.0 15.0 0.00 0.00 0.00 24 1018.5
20260506170037 44 273 2.0 15.0 0.00 0.00 0.00 26 1018.5